RADUGA 19 [-]

Last updated on Aug. 11, 2020, 5:36 a.m. UTC

1 17046U 86082A   20223.08625815 -.00000196  00000-0  00000+0 0  9992
2 17046  14.1851 341.5341 0011484 119.2847 248.7180  0.98462034121911
UTC
Height (km)
Latitude
Longitude
Inclination
Orbital Period
UTC large
Height (km)
Speed (km/s)
/
Latitude / Longitude
Inclination (degrees)
Orbital Period (minutes)
Azimuth
Elevation
Range (km)
Doppler Factor
iOS Compass Heading
iOS Angle

Next 30 passes for location: Hong Kong

Rise time Rise Azimuth (degrees) Set time Set Azimuth (degrees) Duration Max altitude (degrees)

No matching passes for this satellites